Location: El Águila
(10.4167°N, 66.7167°W)
Time: 06:00:18
(UTC+00:00)

NOSS 3-3 (C) - Pass Details

Date: 02 October 2022
Orbit: 775 x 1437 km, 63.4° (Epoch: 16 November)

Event Time Altitude Azimuth Distance (km) Brightness Sun altitude
Rises 23:16:15 0° 200° (SSW) 3,269 7.1 -15.5°
Reaches altitude 10° 23:18:39 10° 199° (SSW) 2,320 6.2 -16.1°
Maximum altitude 23:23:52 76° 113° (ESE) 803 3.4 -17.4°
Drops below altitude 10° 23:29:16 10° 28° (NNE) 2,403 5.8 -18.7°
Enters shadow 23:29:56 - 28° (NNE) 2,663 6.0 -18.8°
